TimeCST,TemperatureF,Dew PointF,Humidity,Sea Level PressureIn,VisibilityMPH,Wind Direction,Wind SpeedMPH,Gust SpeedMPH,PrecipitationIn,Events,Conditions,WindDirDegrees,DateUTC
12:15 AM,24.8,6.8,46,30.21,10.0,South,4.6,-,N/A,,Overcast,180,2013-01-25 06:15:00
12:35 AM,24.8,6.8,46,30.21,10.0,SSW,3.5,-,N/A,,Overcast,200,2013-01-25 06:35:00
12:55 AM,24.8,8.6,50,30.20,10.0,South,3.5,-,N/A,,Overcast,180,2013-01-25 06:55:00
1:15 AM,23.0,8.6,54,30.20,10.0,SSW,3.5,-,N/A,,Scattered Clouds,200,2013-01-25 07:15:00
1:35 AM,21.2,8.6,58,30.19,10.0,SSW,3.5,-,N/A,,Scattered Clouds,210,2013-01-25 07:35:00
1:55 AM,21.2,8.6,58,30.17,10.0,South,4.6,-,N/A,,Scattered Clouds,180,2013-01-25 07:55:00
2:15 AM,21.2,8.6,58,30.18,10.0,Calm,Calm,-,N/A,,Scattered Clouds,0,2013-01-25 08:15:00
2:35 AM,21.2,8.6,58,30.17,10.0,South,4.6,-,N/A,,Scattered Clouds,180,2013-01-25 08:35:00
2:55 AM,19.4,6.8,58,30.17,10.0,SSW,5.8,-,N/A,,Scattered Clouds,200,2013-01-25 08:55:00
3:15 AM,17.6,6.8,63,30.16,10.0,SSW,4.6,-,N/A,,Scattered Clouds,210,2013-01-25 09:15:00
3:35 AM,17.6,6.8,63,30.15,10.0,SSW,4.6,-,N/A,,Scattered Clouds,210,2013-01-25 09:35:00
3:55 AM,15.8,6.8,68,30.15,10.0,Calm,Calm,-,N/A,,Scattered Clouds,0,2013-01-25 09:55:00
4:15 AM,15.8,6.8,68,30.15,10.0,Calm,Calm,-,N/A,,Scattered Clouds,0,2013-01-25 10:15:00
4:35 AM,15.8,6.8,68,30.15,10.0,Calm,Calm,-,N/A,,Scattered Clouds,0,2013-01-25 10:35:00
4:55 AM,15.8,6.8,68,30.15,10.0,Calm,Calm,-,N/A,,Scattered Clouds,0,2013-01-25 10:55:00
5:15 AM,15.8,6.8,68,30.14,10.0,SSW,5.8,-,N/A,,Scattered Clouds,200,2013-01-25 11:15:00
5:35 AM,12.2,6.8,79,30.15,10.0,Calm,Calm,-,N/A,,Scattered Clouds,0,2013-01-25 11:35:00
5:55 AM,15.8,6.8,68,30.15,10.0,Calm,Calm,-,N/A,,Scattered Clouds,0,2013-01-25 11:55:00
6:15 AM,15.8,6.8,68,30.15,10.0,Calm,Calm,-,N/A,,Scattered Clouds,0,2013-01-25 12:15:00
6:35 AM,15.8,8.6,73,30.16,10.0,Calm,Calm,-,N/A,,Scattered Clouds,0,2013-01-25 12:35:00
6:55 AM,15.8,6.8,68,30.15,10.0,Calm,Calm,-,N/A,,Scattered Clouds,0,2013-01-25 12:55:00
7:35 AM,12.2,5.0,73,30.16,10.0,SW,3.5,-,N/A,,Scattered Clouds,230,2013-01-25 13:35:00
7:55 AM,12.2,5.0,73,30.16,10.0,WSW,4.6,-,N/A,,Clear,250,2013-01-25 13:55:00
8:15 AM,15.8,8.6,73,30.16,10.0,WSW,3.5,-,N/A,,Scattered Clouds,250,2013-01-25 14:15:00
8:35 AM,17.6,8.6,68,30.16,10.0,Calm,Calm,-,N/A,,Clear,0,2013-01-25 14:35:00
8:55 AM,21.2,10.4,63,30.17,10.0,WSW,5.8,-,N/A,,Clear,250,2013-01-25 14:55:00
9:15 AM,24.8,12.2,59,30.18,10.0,West,8.1,-,N/A,,Clear,260,2013-01-25 15:15:00
9:35 AM,28.4,12.2,51,30.18,10.0,West,4.6,-,N/A,,Clear,260,2013-01-25 15:35:00
9:55 AM,30.2,14.0,51,30.18,10.0,WNW,4.6,-,N/A,,Clear,300,2013-01-25 15:55:00
10:15 AM,33.8,15.8,48,30.18,10.0,NW,3.5,-,N/A,,Clear,310,2013-01-25 16:15:00
10:35 AM,35.6,17.6,48,30.18,10.0,NW,3.5,-,N/A,,Clear,320,2013-01-25 16:35:00
10:55 AM,37.4,17.6,45,30.19,10.0,NW,3.5,-,N/A,,Clear,310,2013-01-25 16:55:00
11:15 AM,39.2,19.4,45,30.21,10.0,NW,6.9,-,N/A,,Clear,310,2013-01-25 17:15:00
11:35 AM,41.0,19.4,42,30.21,10.0,NW,8.1,-,N/A,,Clear,310,2013-01-25 17:35:00
11:55 AM,42.8,21.2,42,30.21,10.0,NW,11.5,-,N/A,,Clear,320,2013-01-25 17:55:00
12:15 PM,42.8,21.2,42,30.21,10.0,NW,9.2,17.3,N/A,,Clear,320,2013-01-25 18:15:00
12:35 PM,44.6,21.2,39,30.19,10.0,NW,8.1,-,N/A,,Clear,320,2013-01-25 18:35:00
12:55 PM,44.6,21.2,39,30.18,10.0,NNW,10.4,-,N/A,,Clear,340,2013-01-25 18:55:00
1:15 PM,46.4,21.2,37,30.17,10.0,NNW,9.2,17.3,N/A,,Clear,340,2013-01-25 19:15:00
1:35 PM,48.2,19.4,32,30.17,10.0,NNW,11.5,17.3,N/A,,Clear,330,2013-01-25 19:35:00
1:55 PM,48.2,19.4,32,30.16,10.0,NNW,6.9,-,N/A,,Clear,330,2013-01-25 19:55:00
2:15 PM,50.0,19.4,30,30.15,10.0,NW,8.1,-,N/A,,Clear,310,2013-01-25 20:15:00
2:35 PM,51.8,17.6,26,30.15,10.0,NNW,5.8,9.2,N/A,,Clear,330,2013-01-25 20:35:00
2:55 PM,51.8,17.6,26,30.14,10.0,NNW,8.1,-,N/A,,Clear,340,2013-01-25 20:55:00
3:15 PM,51.8,17.6,26,30.15,10.0,NNW,9.2,-,N/A,,Clear,340,2013-01-25 21:15:00
3:35 PM,51.8,17.6,26,30.15,10.0,NW,9.2,-,N/A,,Clear,320,2013-01-25 21:35:00
3:55 PM,51.8,17.6,26,30.16,10.0,NW,8.1,-,N/A,,Clear,310,2013-01-25 21:55:00
4:15 PM,51.8,17.6,26,30.17,10.0,WNW,9.2,-,N/A,,Clear,300,2013-01-25 22:15:00
4:35 PM,48.2,17.6,30,30.18,10.0,West,8.1,-,N/A,,Clear,280,2013-01-25 22:35:00
4:55 PM,46.4,19.4,34,30.18,10.0,WNW,4.6,-,N/A,,Clear,290,2013-01-25 22:55:00
5:15 PM,44.6,21.2,39,30.18,10.0,Calm,Calm,-,N/A,,Scattered Clouds,0,2013-01-25 23:15:00
5:35 PM,42.8,21.2,42,30.18,10.0,Calm,Calm,-,N/A,,Scattered Clouds,0,2013-01-25 23:35:00
5:55 PM,42.8,21.2,42,30.18,10.0,Calm,Calm,-,N/A,,Scattered Clouds,0,2013-01-25 23:55:00
6:15 PM,37.4,21.2,52,30.19,10.0,Calm,Calm,-,N/A,,Scattered Clouds,0,2013-01-26 00:15:00
6:35 PM,32.0,19.4,60,30.20,10.0,WNW,4.6,-,N/A,,Scattered Clouds,300,2013-01-26 00:35:00
6:55 PM,33.8,21.2,60,30.21,10.0,Calm,Calm,-,N/A,,Scattered Clouds,0,2013-01-26 00:55:00
7:15 PM,37.4,21.2,52,30.21,10.0,Calm,Calm,-,N/A,,Scattered Clouds,0,2013-01-26 01:15:00
7:35 PM,35.6,21.2,56,30.21,10.0,Calm,Calm,-,N/A,,Scattered Clouds,0,2013-01-26 01:35:00
7:55 PM,33.8,21.2,60,30.21,10.0,Calm,Calm,-,N/A,,Scattered Clouds,0,2013-01-26 01:55:00
8:15 PM,35.6,21.2,56,30.21,10.0,ENE,3.5,-,N/A,,Scattered Clouds,60,2013-01-26 02:15:00
8:35 PM,33.8,21.2,60,30.22,10.0,Calm,Calm,-,N/A,,Scattered Clouds,0,2013-01-26 02:35:00
8:55 PM,30.2,19.4,64,30.23,10.0,NE,3.5,-,N/A,,Scattered Clouds,40,2013-01-26 02:55:00
9:15 PM,30.2,21.2,69,30.23,10.0,Calm,Calm,-,N/A,,Scattered Clouds,0,2013-01-26 03:15:00
9:35 PM,28.4,19.4,69,30.24,10.0,NNE,3.5,-,N/A,,Scattered Clouds,30,2013-01-26 03:35:00
9:55 PM,26.6,19.4,74,30.24,10.0,Calm,Calm,-,N/A,,Scattered Clouds,0,2013-01-26 03:55:00
10:15 PM,26.6,19.4,74,30.25,10.0,Calm,Calm,-,N/A,,Scattered Clouds,0,2013-01-26 04:15:00
10:35 PM,26.6,19.4,74,30.25,10.0,Calm,Calm,-,N/A,,Scattered Clouds,0,2013-01-26 04:35:00
10:55 PM,26.6,19.4,74,30.25,10.0,Calm,Calm,-,N/A,,Scattered Clouds,0,2013-01-26 04:55:00
11:15 PM,24.8,17.6,74,30.26,10.0,Calm,Calm,-,N/A,,Scattered Clouds,0,2013-01-26 05:15:00
11:35 PM,26.6,19.4,74,30.26,10.0,Calm,Calm,-,N/A,,Scattered Clouds,0,2013-01-26 05:35:00
11:55 PM,26.6,19.4,74,30.26,10.0,NE,4.6,-,N/A,,Scattered Clouds,50,2013-01-26 05:55:00